Location: ?????
(55.6500°N, 37.2500°E)
Time: 14:20:47
(UTC+00:00)

Cosmos 2366 rocket - Pass Details

Date: 19 May 2025
Orbit: 954 x 996 km, 82.9° (Epoch: 19 June)

Event Time Altitude Azimuth Distance (km) Brightness Sun altitude
Rises 19:20:56 0° 347° (NNW) 3,730 8.7 -9.8°
Reaches altitude 10° 19:23:30 10° 344° (NNW) 2,777 7.9 -10.0°
Maximum altitude 19:29:46 61° 266° (W) 1,122 4.5 -10.4°
Drops below altitude 10° 19:35:57 10° 188° (S) 2,748 5.9 -10.8°
Enters shadow 19:36:31 - 187° (S) 2,954 6.0 -10.8°
